Theta_e
324 322 323 320 318 317 318 320 305 312 309 300 301 302 298 307 306 302 300 304 299 302 302 302 302 301 298 294 293 293 293 292 292 292 290 296 302 301 301 302 302 302 300 300 300 302 306 318 324 324 326 327 326 327 327 326 326 327 326 326 326 326 327 326 325 325 326 327 327 328 330 331 330 330 330 331 330 330 329 329 327 328 328 328 328 328 329 330 330 331 331 331 331 332 331 331 330
315 316 318 316 315 321 314 319 309 304 303 299 300 303 302 304 303 299 298 299 299 301 303 302 302 302 299 297 297 297 292 293 295 292 294 298 301 301 301 302 302 302 301 300 300 303 309 315 322 323 324 324 325 325 325 325 324 324 325 325 325 324 324 324 325 324 324 323 323 324 327 327 329 328 329 328 330 328 328 328 328 326 326 327 326 326 326 326 327 327 327 327 327 327 327 327 327
312 311 314 315 316 317 317 317 302 303 298 294 297 301 304 299 299 300 301 301 303 304 305 304 302 301 302 301 294 294 289 295 295 296 294 299 295 297 300 302 301 302 300 300 301 305 308 315 320 321 322 323 323 322 322 322 323 322 322 322 323 323 323 323 322 323 322 322 321 321 321 324 325 325 326 327 328 328 328 328 328 326 325 325 325 325 325 324 325 326 324 324 324 324 324 324 324
317 314 312 317 314 320 312 308 305 300 297 298 297 301 300 299 299 302 303 305 305 306 305 301 297 301 299 293 295 297 293 292 295 295 294 296 295 299 300 300 301 298 298 299 300 303 306 314 318 318 320 321 321 321 321 321 321 321 320 320 321 321 321 321 321 320 320 320 320 320 319 320 320 322 322 322 324 325 325 326 326 326 325 324 324 324 324 323 324 324 323 323 323 323 322 321 320
313 317 318 318 318 309 312 308 301 299 292 296 295 300 301 301 301 302 303 305 305 305 305 301 298 299 297 293 296 293 291 295 296 297 297 298 300 298 299 300 299 296 297 297 299 301 305 314 316 316 317 319 319 320 320 319 319 319 319 319 319 319 319 319 319 319 318 318 318 318 318 318 320 320 320 320 320 321 320 320 322 323 323 322 322 321 321 322 321 321 321 321 322 321 321 320 318
314 314 322 322 313 317 310 301 296 294 297 303 297 299 302 303 302 303 303 304 304 305 304 303 300 297 292 291 294 291 296 292 297 297 297 297 297 299 299 301 297 296 297 297 298 299 304 312 315 316 316 317 318 318 318 319 319 318 317 318 318 317 317 317 317 317 317 317 317 317 317 317 316 317 318 319 319 319 319 319 319 319 318 318 319 318 318 318 319 319 318 318 319 319 319 318 317
315 316 319 319 315 316 300 297 295 295 296 302 300 300 302 304 304 303 301 302 303 302 304 301 298 296 292 293 294 294 297 298 295 295 299 298 298 299 299 297 296 295 296 298 298 298 304 311 313 314 316 316 317 317 317 316 317 317 316 316 316 316 316 315 315 315 316 316 316 316 316 316 315 316 316 317 318 318 318 318 318 318 318 317 317 317 316 316 315 316 316 316 316 317 317 317 316
320 316 316 309 306 305 296 295 295 297 296 298 299 299 301 302 305 302 300 299 296 297 300 303 300 294 291 300 288 293 296 296 298 299 299 296 299 299 300 296 295 295 296 296 297 298 304 309 310 312 314 314 316 316 315 315 315 315 314 315 315 315 315 315 314 314 314 314 314 314 314 314 314 314 314 315 316 317 317 317 317 317 317 317 317 317 316 315 315 315 315 314 314 314 315 315 315
319 317 322 313 302 303 296 294 294 299 296 297 297 300 303 303 303 301 298 299 298 298 297 298 301 295 290 289 288 292 294 297 298 299 298 298 299 299 298 297 295 296 296 295 296 298 301 306 308 310 311 312 313 313 313 313 313 313 313 313 313 313 313 313 313 313 312 313 313 313 312 312 312 313 313 313 313 314 315 315 315 315 315 316 316 316 315 315 314 314 314 313 313 314 313 313 313
316 315 305 308 305 296 296 295 294 295 294 297 296 296 300 303 302 302 299 297 297 297 297 298 297 292 292 287 289 291 292 298 298 297 298 300 301 299 296 296 296 296 297 296 297 297 299 303 306 306 308 310 310 311 311 312 312 312 312 312 312 312 312 312 312 312 311 311 311 311 311 310 310 310 311 311 311 311 313 314 314 313 314 314 314 314 314 314 313 313 312 312 312 312 312 312 312
307 310 317 305 298 296 293 293 295 297 296 298 297 299 300 303 302 299 298 296 298 295 296 300 294 292 291 288 288 295 297 298 296 295 297 299 300 297 295 297 297 297 297 301 301 300 299 300 303 305 305 307 308 309 309 310 310 310 311 311 311 311 311 311 311 310 310 309 309 309 309 309 309 309 309 308 308 309 309 311 311 311 312 312 312 312 312 312 312 311 311 310 310 311 310 310 310
304 304 309 299 298 296 295 294 294 295 296 297 295 298 300 300 301 298 297 296 296 294 294 297 294 296 290 288 288 292 295 294 295 296 295 297 296 297 298 296 299 297 299 299 300 300 300 300 301 302 304 304 305 307 307 308 309 309 309 310 310 309 310 309 310 309 309 308 307 307 307 308 308 307 307 307 307 307 307 308 309 310 310 310 310 310 310 311 310 310 310 310 309 309 310 309 310
308 309 304 300 298 298 297 295 295 296 295 294 295 298 301 299 296 298 296 295 295 294 292 296 300 299 288 288 291 293 293 293 296 296 295 294 296 296 297 294 297 299 300 301 299 299 301 298 298 299 301 303 303 304 305 306 307 308 308 308 308 308 308 308 308 308 308 307 306 306 306 305 305 305 305 305 305 305 305 305 307 308 308 308 308 308 308 308 309 309 309 308 308 308 309 308 308
310 310 305 297 302 299 297 295 297 294 292 295 297 299 299 297 296 298 297 292 291 292 295 296 298 294 288 290 290 290 292 295 296 297 295 294 295 297 299 296 300 299 301 300 297 298 298 299 299 299 299 299 299 303 303 305 305 306 306 306 307 307 308 307 307 307 307 307 306 305 304 304 303 303 303 303 304 304 304 303 304 306 307 307 307 307 307 308 308 308 308 308 308 307 307 307 306
307 311 305 300 298 298 299 295 295 294 291 296 298 298 296 297 298 295 296 292 291 295 299 298 295 295 291 291 289 291 294 296 296 299 297 297 297 298 299 298 300 301 298 297 298 299 297 300 300 300 302 301 300 300 300 302 305 305 305 305 306 305 305 305 305 305 305 305 305 305 305 303 301 302 303 302 302 303 303 303 303 304 306 306 306 307 307 307 307 307 307 307 307 306 305 305 304
313 310 304 297 294 295 296 296 297 293 291 297 299 298 295 295 297 294 294 295 291 294 295 290 295 293 293 291 291 293 295 296 297 298 297 298 298 298 297 297 295 296 297 297 296 298 299 299 300 300 300 300 301 300 300 300 306 305 305 305 304 305 305 305 304 304 304 303 304 304 304 304 303 299 302 300 302 303 302 302 302 303 305 306 306 306 306 306 306 306 306 307 306 305 304 304 303
314 312 297 295 290 292 293 296 297 289 294 297 300 299 294 292 296 296 298 296 290 290 290 291 291 295 292 292 294 296 296 298 299 297 298 296 295 294 294 294 294 295 298 294 295 296 298 298 298 298 299 298 299 299 300 300 303 305 305 306 305 305 304 304 304 305 306 305 304 305 304 299 296 297 299 297 302 301 302 302 302 302 303 304 305 305 305 304 305 305 305 306 305 304 303 303 302
308 299 294 290 291 291 296 295 296 298 295 297 299 298 295 291 294 294 296 293 292 292 290 291 292 292 293 294 295 297 297 296 295 294 294 293 293 291 291 292 292 291 293 293 296 296 296 297 298 298 297 297 298 301 302 302 301 303 298 298 300 301 304 306 301 301 305 298 304 299 297 298 296 296 297 304 298 301 301 302 304 302 302 303 303 304 304 304 304 305 304 304 305 303 302 298 300
300 295 293 288 292 294 300 300 300 297 295 296 297 298 297 295 295 295 294 293 293 290 291 292 290 291 292 293 295 295 298 296 293 294 295 295 292 293 293 293 294 292 293 294 294 296 297 296 297 297 298 298 297 297 301 302 297 297 297 298 299 303 301 301 298 298 297 297 298 297 298 295 296 297 297 303 303 304 302 302 302 302 302 302 302 303 302 302 303 303 303 303 303 302 300 297 296
301 295 288 289 294 295 298 299 297 298 297 295 295 295 295 296 296 298 292 290 291 289 289 290 290 290 291 294 295 296 297 294 296 295 294 294 295 294 294 292 292 293 293 295 295 300 295 295 295 297 298 297 297 297 299 297 297 297 297 297 296 296 296 298 296 296 297 297 297 297 295 296 297 295 303 304 304 297 297 303 303 302 302 301 302 303 304 301 302 302 302 302 305 301 296 296 296
298 296 291 292 295 292 295 298 298 298 298 295 294 294 292 293 297 296 292 289 288 289 291 290 289 290 291 293 294 294 294 294 294 295 295 295 295 296 294 294 293 293 294 294 294 298 294 295 295 295 296 296 297 296 297 296 298 296 297 296 296 296 295 296 295 296 296 297 297 296 296 296 296 295 295 296 295 295 294 295 295 295 295 294 303 294 295 296 298 295 295 299 294 296 295 295 295
297 293 295 295 295 292 295 296 298 298 298 297 295 292 290 294 291 292 292 286 284 288 290 291 291 292 291 291 291 293 293 295 293 294 293 294 293 293 294 292 295 293 295 292 292 292 294 295 296 296 296 296 296 296 296 298 299 295 295 296 296 296 296 295 295 296 295 295 296 296 296 294 294 294 294 295 295 294 293 293 294 294 293 294 297 294 294 294 294 293 294 294 293 294 294 294 294
288 292 293 295 296 293 295 295 296 298 296 294 293 293 293 291 289 290 289 287 288 291 291 291 291 291 291 291 293 292 293 292 292 293 295 294 294 295 293 293 292 291 293 292 293 293 294 294 295 295 295 295 296 296 296 296 295 296 296 296 297 295 295 295 294 294 296 296 296 296 295 293 293 292 293 293 293 294 293 293 293 294 293 293 295 293 293 294 293 293 292 293 293 293 294 293 294
292 288 292 292 294 292 294 294 295 295 295 294 296 296 291 289 285 289 287 288 289 290 290 290 290 292 292 289 291 290 290 290 291 293 295 294 296 295 294 294 292 292 293 293 293 293 294 294 294 294 294 294 294 295 295 295 295 296 297 299 296 298 297 294 294 295 297 294 297 295 297 294 293 292 293 292 293 293 293 294 294 293 293 293 294 294 293 292 292 292 292 292 293 293 293 293 293
290 289 292 292 293 293 294 294 294 294 294 294 292 289 288 289 287 288 286 288 289 289 290 290 291 290 289 288 289 290 290 293 292 294 296 292 295 295 296 293 293 292 291 292 293 294 293 296 294 293 293 293 294 295 294 294 295 296 296 295 294 301 294 294 294 295 294 294 295 297 297 294 293 293 292 293 293 293 293 293 293 293 293 293 294 293 293 292 292 291 292 292 292 292 292 292 292
291 290 291 291 291 293 293 294 294 293 293 293 290 288 289 290 291 286 287 288 290 291 290 290 291 290 290 289 291 290 289 291 293 292 292 294 296 293 294 292 292 290 291 292 293 293 293 294 293 293 293 294 295 295 295 294 294 294 295 295 294 297 294 295 295 293 293 293 293 295 296 296 294 293 292 292 292 292 293 293 293 293 293 293 292 292 292 292 291 291 292 292 292 292 292 292 293
293 291 291 290 291 291 292 291 293 294 293 293 290 289 290 291 291 282 289 289 290 290 289 290 290 289 290 290 291 291 290 292 291 292 292 294 294 292 292 293 291 292 293 293 292 293 295 293 293 293 294 297 295 294 295 294 295 294 295 294 294 294 294 296 294 294 293 293 294 295 296 296 295 294 293 293 292 292 293 292 292 293 292 292 293 293 293 293 292 292 292 292 291 291 291 291 292
292 291 291 290 291 291 291 292 291 292 291 293 292 289 290 290 288 284 287 289 290 289 289 289 289 289 289 291 290 292 291 292 291 293 293 291 291 291 291 291 291 291 292 292 293 294 293 293 293 293 294 295 296 295 295 294 294 294 295 294 293 295 295 293 293 294 295 293 294 295 295 294 296 293 293 293 293 292 292 292 292 292 292 292 292 292 292 293 293 292 293 292 292 292 291 291 291
292 292 287 288 290 288 290 289 291 292 288 291 292 288 285 286 284 287 289 290 290 290 289 289 289 289 290 291 291 290 290 291 292 291 293 291 291 291 290 292 291 291 292 293 293 293 292 292 294 294 294 295 295 294 294 294 294 295 294 294 294 297 294 294 293 294 294 294 294 294 295 295 295 294 293 293 295 292 292 292 292 292 292 292 292 292 292 292 291 291 291 292 291 291 291 290 292
293 292 288 287 287 285 289 291 291 290 289 291 289 279 280 283 286 287 289 289 289 288 288 288 288 289 289 290 290 291 291 291 291 291 291 291 291 291 291 291 293 291 292 292 292 292 294 296 295 296 297 294 296 294 295 293 294 294 296 293 295 295 293 293 294 294 294 294 294 294 294 295 294 293 293 293 292 292 292 292 291 291 291 292 292 292 291 290 290 290 291 290 292 290 289 289 289
288 290 290 286 283 280 288 289 289 288 290 290 290 280 280 284 285 288 290 290 288 287 287 288 289 290 290 292 291 290 291 291 291 292 292 292 291 291 291 291 291 292 291 291 291 292 293 294 297 294 296 293 294 293 294 294 294 294 293 293 294 294 295 293 293 294 292 293 294 292 294 295 294 293 293 292 292 291 291 290 290 290 291 291 290 290 291 291 290 290 290 289 289 289 289 289 289
290 285 284 287 283 282 287 291 289 286 289 290 288 281 280 283 284 287 289 289 288 287 287 288 288 289 289 289 289 289 290 291 292 291 292 292 292 291 292 291 291 291 292 292 293 293 292 293 295 293 294 293 293 294 294 294 294 294 294 298 294 294 293 294 293 293 293 293 293 293 293 294 294 293 293 292 291 290 290 289 289 289 290 289 289 289 290 289 289 289 289 289 288 287 288 287 287
290 288 283 282 284 282 284 288 289 290 289 290 287 280 282 281 285 287 289 288 288 287 287 288 289 289 289 288 289 288 289 289 291 291 291 292 292 291 291 291 292 293 293 293 292 292 293 293 294 293 293 294 293 293 293 293 294 293 294 294 294 294 293 292 292 293 294 293 292 292 293 294 293 293 292 292 290 290 289 289 289 289 289 289 288 288 288 289 288 289 288 289 287 286 286 286 286
284 286 281 284 282 283 280 287 288 289 289 285 287 283 281 283 284 286 288 288 288 287 287 287 288 288 289 289 288 287 288 288 288 289 291 291 291 292 292 295 293 293 293 293 293 292 292 292 293 294 294 293 293 293 293 293 293 294 293 293 295 294 293 293 293 293 293 292 292 292 293 293 293 292 291 291 290 290 289 288 288 288 288 288 288 288 287 288 288 287 286 286 287 285 285 285 285
281 283 282 281 283 284 282 281 285 287 288 286 284 283 282 283 284 285 287 289 288 287 286 287 287 287 288 288 288 288 288 288 289 290 292 293 294 294 292 293 292 292 292 291 292 293 292 292 293 292 294 293 292 292 293 293 293 293 293 293 292 293 293 292 292 292 292 292 292 293 293 293 292 291 291 290 288 288 287 287 287 287 287 287 286 285 285 285 286 286 285 285 286 286 285 286 286
284 285 284 284 280 280 281 284 287 286 284 284 284 280 281 283 283 285 286 288 287 287 287 287 288 287 287 287 288 288 289 288 291 293 294 293 294 294 294 293 293 292 292 292 293 293 292 292 291 292 293 292 292 292 292 292 291 291 290 291 291 292 292 293 293 292 293 292 293 293 291 291 291 291 290 289 287 287 287 286 286 286 286 285 284 283 283 283 283 284 284 285 285 285 286 286 286
287 288 286 283 282 282 285 285 286 287 284 282 283 283 282 283 283 285 286 287 287 286 286 287 287 287 288 287 287 288 288 289 293 294 294 295 295 292 293 293 292 291 291 291 291 292 292 292 291 291 292 292 292 291 291 291 290 290 290 290 290 291 292 292 292 292 292 292 292 291 291 290 290 289 290 288 286 287 286 285 285 285 284 284 283 283 283 283 284 285 285 285 284 283 283 284 284
286 286 286 282 284 279 284 284 286 287 283 282 284 283 283 283 284 285 286 286 285 286 286 286 286 286 287 287 287 288 288 292 292 291 291 292 292 294 293 292 293 290 291 291 291 291 291 292 291 291 291 292 292 292 291 291 291 290 290 290 290 290 290 290 290 291 291 293 291 290 290 289 289 288 288 287 287 285 284 284 284 283 283 282 284 284 284 286 284 283 284 282 283 282 281 283 284
288 285 284 282 281 284 284 286 287 287 285 281 283 282 282 283 284 285 285 286 286 286 286 286 286 287 287 287 287 288 288 288 288 289 291 290 293 293 292 292 291 291 291 290 291 291 291 291 291 291 291 291 292 293 292 291 291 291 291 291 290 289 291 291 291 291 292 290 290 290 289 288 287 286 286 286 285 284 283 283 283 282 282 283 282 282 282 282 283 282 282 281 281 282 282 284 283
284 284 281 278 283 281 278 284 285 286 283 281 283 281 282 283 284 285 286 286 287 289 289 289 290 286 286 286 287 287 287 287 287 288 288 289 290 290 290 290 290 291 290 290 291 290 291 292 290 291 291 291 291 292 295 292 293 293 292 292 291 291 290 291 291 290 289 289 288 288 287 287 286 285 285 284 284 283 282 282 282 282 282 283 282 281 281 281 281 282 281 282 282 279 280 280 282
283 283 281 279 280 281 281 281 284 285 286 286 283 281 281 281 281 282 284 286 287 287 287 287 287 288 289 290 289 290 288 287 287 287 288 288 289 289 289 290 290 290 290 290 291 290 292 290 291 291 291 291 291 293 292 292 292 291 291 290 290 290 289 288 288 287 288 288 288 286 285 286 285 284 284 283 284 283 282 282 282 282 282 282 282 281 281 281 281 281 281 281 280 279 278 279 280
279 280 282 282 282 281 283 284 282 279 278 283 282 275 276 280 281 281 282 283 283 284 284 285 286 287 287 286 287 289 291 289 288 288 288 288 289 289 290 290 290 289 290 291 291 291 290 290 291 291 291 291 291 292 293 292 290 289 288 287 286 286 285 286 285 285 285 285 284 285 284 284 284 283 283 283 282 284 282 282 281 281 281 281 282 281 281 281 281 281 281 280 279 280 279 278 277
280 278 282 284 283 283 283 282 281 276 274 281 284 274 272 279 280 281 281 282 282 284 284 284 285 286 286 287 288 287 287 288 289 289 288 288 288 289 289 289 289 289 289 292 291 291 290 291 290 291 290 291 293 292 291 292 289 289 288 287 287 286 285 285 286 286 285 284 284 283 283 283 282 282 282 282 282 282 282 282 281 281 281 280 282 281 280 280 280 281 282 280 279 281 279 277 277
279 280 283 283 283 283 283 283 281 279 281 285 283 282 274 275 278 282 283 282 282 283 283 284 285 286 286 287 288 288 288 288 288 288 288 288 288 288 288 289 289 290 290 292 292 292 291 290 290 291 291 292 291 291 291 291 289 288 287 287 288 286 285 284 285 284 284 284 282 281 281 281 282 282 282 281 281 282 283 282 281 280 280 280 282 280 280 280 280 280 281 280 280 280 279 277 277
280 283 285 283 283 284 283 280 280 281 278 276 278 281 274 275 276 282 282 279 281 282 283 284 286 286 287 287 288 288 288 288 288 287 287 288 288 289 289 289 290 290 291 291 291 291 292 291 291 291 291 290 291 290 291 289 291 289 287 286 285 286 286 285 284 283 282 282 280 281 280 280 281 281 281 281 281 281 283 281 280 280 280 280 282 281 280 280 279 279 278 278 278 278 278 279 278
284 286 286 286 285 285 284 280 280 280 276 274 275 278 272 274 276 278 279 279 279 280 282 283 285 286 286 287 287 288 287 288 289 288 288 288 289 289 290 290 290 290 291 292 291 291 292 291 291 291 290 290 290 290 290 289 288 289 286 285 284 284 284 282 281 280 280 280 279 279 280 280 280 280 280 281 281 281 280 281 280 280 279 280 281 279 279 278 278 278 278 278 278 277 278 278 278
287 285 283 283 283 282 282 280 278 277 274 274 278 278 275 271 278 279 277 279 281 281 282 283 285 285 286 287 286 287 287 287 287 288 289 289 289 290 290 289 289 290 290 290 291 291 291 291 290 289 290 290 290 289 289 288 287 287 286 285 283 282 281 280 279 278 279 279 278 278 279 279 279 279 280 280 280 280 280 281 280 279 280 280 280 278 278 278 278 278 278 278 277 277 277 277 278
285 282 280 280 279 279 278 278 278 273 272 276 277 277 278 270 275 278 281 282 282 283 281 282 283 284 285 286 286 287 286 287 287 287 288 288 289 289 289 289 289 289 289 289 289 290 290 290 289 289 289 289 289 289 288 287 286 286 285 284 282 281 280 279 278 277 278 278 278 278 278 278 278 279 279 279 279 279 280 279 279 278 279 278 278 278 278 278 278 278 277 277 277 277 277 278 276
283 282 281 277 276 276 273 276 271 273 272 275 276 278 274 275 277 279 281 282 283 284 284 284 284 284 284 285 286 286 287 287 287 286 288 288 288 288 288 288 288 288 289 289 289 289 289 289 289 288 288 289 289 288 287 286 285 285 284 283 281 281 280 279 278 278 278 278 277 277 277 277 277 277 277 277 278 278 279 277 277 277 277 277 278 277 277 277 277 277 276 276 276 276 276 276 275
280 277 275 274 271 269 268 272 274 274 276 277 276 278 274 276 279 282 281 283 284 284 285 286 285 285 285 285 286 286 287 287 287 288 287 287 287 288 288 288 288 288 288 289 289 289 288 289 288 288 288 288 288 287 286 285 285 284 283 281 280 279 279 279 278 278 278 278 278 277 277 277 277 277 277 277 277 278 278 278 278 277 277 277 277 277 277 277 277 276 276 275 275 275 276 275 275
279 282 279 277 273 269 266 271 267 268 272 276 277 273 271 273 275 283 282 283 284 285 285 285 285 285 285 285 286 286 286 286 287 287 287 287 288 288 288 289 288 288 288 289 288 288 288 288 288 287 287 287 286 286 285 284 283 282 281 280 279 279 279 279 278 279 278 277 277 277 277 277 276 276 276 277 278 277 277 277 277 277 276 276 276 276 277 276 276 276 275 275 276 275 275 276 275
279 281 283 277 272 276 273 274 272 269 269 271 274 273 276 276 283 284 284 282 283 284 284 285 284 285 286 286 286 287 287 287 288 287 287 287 288 288 288 288 288 288 288 288 288 288 287 287 287 287 286 286 285 285 284 283 282 281 280 279 279 280 280 279 279 279 278 277 277 277 276 276 276 276 276 277 277 277 276 276 276 276 276 276 275 276 275 275 275 275 275 275 274 276 275 274 274
279 280 275 275 280 276 273 270 271 271 270 270 276 276 277 279 281 282 282 282 281 282 283 284 284 284 285 285 286 286 287 287 287 287 287 287 287 288 288 288 288 288 287 287 287 287 287 287 287 286 286 284 284 284 283 282 280 279 279 279 278 278 278 277 277 277 277 277 277 276 276 276 276 276 276 277 276 276 276 275 275 275 275 275 275 275 275 275 275 274 274 274 273 274 275 274 274
280 277 277 279 277 275 273 271 271 270 269 271 274 273 274 276 272 280 281 279 282 282 283 283 284 284 283 285 285 286 286 286 287 287 287 288 288 288 288 288 288 288 287 287 287 288 287 287 286 285 284 283 283 282 281 280 278 278 278 278 278 278 277 277 277 276 277 276 276 276 276 275 275 275 276 276 276 275 275 276 274 274 274 274 274 274 274 274 274 274 274 274 274 274 274 274 274
280 278 283 278 274 273 276 273 266 265 265 269 273 275 275 275 275 277 278 279 280 281 282 281 282 283 283 284 284 285 286 286 286 286 286 287 287 287 287 287 288 288 288 288 288 288 287 286 286 284 283 283 282 281 280 279 278 278 279 278 277 277 277 277 277 277 276 275 275 275 275 275 275 275 275 274 274 274 274 274 274 274 274 274 274 274 274 274 274 273 273 273 273 273 273 273 273
278 282 281 282 278 274 272 273 271 271 268 268 267 272 271 278 276 279 279 280 281 280 281 281 282 283 284 283 284 285 285 286 286 286 286 287 287 287 287 287 287 287 287 288 287 287 286 286 285 283 283 282 280 279 278 277 278 278 277 277 277 277 277 276 276 276 275 274 275 274 274 274 274 275 274 274 273 273 273 273 273 273 273 273 273 273 273 273 273 273 273 273 273 273 272 272 272
278 279 277 277 277 277 276 274 272 270 267 269 267 266 273 277 280 281 281 281 282 282 281 282 283 283 284 284 285 285 285 286 286 286 286 287 287 287 287 287 288 288 288 287 286 286 285 285 283 282 281 280 278 278 277 277 277 277 277 276 276 276 275 276 275 275 275 274 274 275 274 274 274 273 273 273 273 273 273 273 272 273 273 272 272 272 273 273 272 272 272 272 272 272 272 271 272
276 276 276 277 274 274 272 270 274 272 271 268 267 267 274 280 281 283 282 283 283 283 283 282 282 283 284 285 285 285 285 286 286 286 286 287 287 287 287 287 288 287 287 285 286 285 284 283 282 281 280 278 277 277 277 277 277 276 276 275 275 275 275 275 274 274 274 274 273 273 273 273 273 273 273 273 272 273 273 272 272 272 272 272 272 272 272 272 271 271 271 272 272 271 271 271 271
Wind_Speed
10 9 7 6 5 5 6 3 2 2 1 2 5 6 5 10 11 12 13 0 6 6 8 10 11 13 11 10 17 15 15 10 6 2 3 1 2 5 12 10 11 11 9 10 11 11 14 19 27 28 27 27 28 29 28 28 28 28 28 28 26 26 26 26 27 27 28 29 29 29 28 29 28 29 29 28 28 28 26 24 24 24 25 27 27 28 28 28 28 28 28 27 27 26 25 25 23
8 9 8 4 4 2 3 5 2 1 2 7 8 8 8 10 13 13 11 12 7 4 5 8 11 13 20 18 14 12 15 12 10 7 4 5 7 3 11 11 11 11 9 8 9 10 11 16 26 26 27 26 27 27 28 28 27 27 28 28 27 25 26 26 26 26 25 26 26 27 28 27 27 27 28 28 27 27 27 28 27 26 26 25 25 26 25 25 25 24 25 25 24 24 24 24 23
6 7 8 4 4 3 6 2 2 2 3 6 6 9 11 12 13 11 10 8 7 4 2 6 11 11 10 11 15 11 5 9 9 6 4 7 7 7 11 10 10 7 6 6 8 9 10 15 24 25 25 26 26 25 25 25 26 26 26 26 26 27 25 26 26 25 25 24 24 24 25 27 26 26 28 28 27 27 27 26 26 25 25 25 24 24 24 24 24 24 24 23 22 23 23 23 23
6 5 3 3 2 2 2 2 2 2 9 5 8 12 13 11 11 10 9 7 2 5 6 8 7 8 10 14 9 14 10 5 8 6 3 6 4 7 9 10 9 7 7 6 7 9 10 16 22 23 23 24 24 25 25 25 25 25 25 24 24 24 25 25 24 24 23 23 23 22 22 21 22 25 24 24 24 25 24 25 24 23 24 24 24 24 23 23 22 24 23 22 21 21 21 21 21
5 4 4 3 1 2 1 1 5 6 8 6 6 9 12 11 9 10 9 8 9 9 7 8 6 8 12 10 8 3 3 5 7 6 3 4 7 7 9 8 7 7 8 8 8 9 10 20 20 20 22 23 23 23 24 24 24 24 24 24 24 24 24 24 24 23 23 23 22 22 22 21 22 21 21 22 21 21 20 20 21 22 21 21 21 20 21 22 22 22 21 20 20 20 20 19 19
6 6 4 2 2 2 3 4 9 11 8 5 8 7 8 7 10 9 10 9 10 8 10 12 7 4 7 8 7 5 6 1 3 4 5 5 7 8 8 6 8 8 8 7 8 7 9 18 19 20 21 21 22 23 23 23 23 24 24 23 23 22 23 22 22 22 22 22 22 21 21 21 20 20 22 21 21 20 18 19 18 18 18 18 18 19 18 19 20 19 19 20 19 19 19 19 19
2 3 2 2 4 1 7 9 9 9 11 11 10 9 10 8 8 9 10 9 9 11 8 8 15 12 10 4 8 8 7 6 2 4 5 4 4 6 7 7 6 8 8 7 6 6 9 17 19 20 20 21 22 23 23 24 24 23 23 23 22 22 22 21 21 21 21 21 21 21 21 21 21 20 20 20 19 18 18 18 18 17 16 16 16 16 17 17 16 16 16 17 18 19 19 18 18
3 1 2 2 2 6 10 9 10 6 9 12 12 12 11 10 10 11 11 8 8 9 12 9 12 13 10 6 5 3 4 4 3 2 3 4 4 5 4 5 5 6 7 6 6 6 10 17 18 18 20 21 21 21 21 21 21 21 22 21 20 20 20 20 21 21 21 21 20 20 20 20 20 20 19 19 18 18 17 17 17 17 17 17 17 17 17 16 15 15 15 15 16 17 17 18 18
2 1 0 2 5 4 8 9 9 9 10 10 11 11 9 9 10 11 12 9 8 12 15 13 0 6 4 12 7 3 3 4 3 2 3 3 4 4 2 4 6 4 5 5 5 4 5 13 16 18 19 20 20 20 20 19 19 20 20 19 20 20 20 20 20 20 20 20 20 19 19 19 19 19 19 18 18 18 18 17 17 17 17 16 16 16 16 16 16 16 15 15 15 15 15 16 17
2 1 2 2 7 9 8 6 6 6 10 11 10 9 8 7 10 10 10 11 10 9 11 14 16 15 11 11 6 2 3 4 2 2 2 2 2 4 5 6 5 6 6 6 4 5 5 10 14 15 16 17 18 18 17 18 18 19 20 20 20 20 20 20 19 19 19 18 18 18 18 18 18 18 17 17 17 17 17 16 16 15 15 15 15 15 15 15 15 15 15 15 15 15 15 15 16
2 2 2 1 5 8 8 8 8 8 9 8 9 8 9 7 8 10 11 12 10 10 11 6 13 10 8 7 4 1 3 2 4 6 5 2 3 5 5 4 4 3 2 1 2 1 1 3 9 12 13 14 16 16 17 18 19 20 20 20 20 20 19 19 19 19 18 17 17 17 16 16 15 15 16 16 16 15 15 15 15 15 14 14 14 14 14 14 15 15 15 15 14 14 14 14 15
2 1 2 5 7 9 8 10 9 9 9 8 8 8 6 9 8 10 10 10 10 12 12 11 5 11 10 5 3 3 3 5 6 5 5 4 4 3 2 2 2 3 2 2 2 1 2 1 2 6 10 10 11 13 15 16 17 17 17 17 18 18 18 17 17 17 17 16 15 15 15 15 14 14 14 14 14 15 15 15 15 14 14 15 14 14 13 13 13 14 14 14 13 12 12 13 13
2 2 7 6 6 9 10 10 8 8 7 7 6 7 6 10 12 10 11 12 11 10 10 12 2 3 4 3 2 2 3 5 5 5 4 4 3 4 2 2 3 2 3 3 2 2 3 3 3 4 7 12 10 12 12 12 13 15 15 16 16 16 15 14 14 14 15 15 13 12 13 13 13 13 13 13 13 12 12 14 14 14 14 14 14 14 14 13 13 13 12 12 12 12 10 11 12
2 3 6 6 6 9 8 7 8 7 6 4 4 8 9 9 10 10 9 12 11 9 5 9 9 14 8 6 2 2 2 2 2 4 4 2 1 1 3 2 2 3 2 2 3 3 3 3 3 3 3 3 4 6 9 10 8 8 9 10 10 11 12 11 12 13 12 12 11 10 8 8 10 10 12 11 11 11 11 11 13 13 13 13 13 13 13 14 14 14 13 12 12 11 10 9 10
3 4 5 6 6 7 5 5 7 7 4 5 6 8 10 9 10 11 10 10 9 7 2 8 7 5 2 5 2 2 1 1 3 2 3 4 3 2 4 3 1 1 2 1 0 1 2 2 1 1 2 2 2 2 3 5 7 7 7 6 9 11 16 14 12 14 14 14 17 10 7 6 3 7 7 9 8 9 10 9 11 11 12 12 13 12 11 12 13 13 14 13 11 11 11 9 8
2 1 3 5 7 6 6 9 7 9 5 5 8 12 14 12 10 9 8 7 5 9 8 5 10 3 4 7 5 4 2 3 3 3 4 5 5 4 4 5 3 1 2 1 2 1 1 1 1 2 4 4 2 2 3 3 5 11 15 16 14 15 16 16 13 15 12 13 14 16 13 7 8 3 6 4 9 8 8 6 9 11 11 11 12 12 10 11 12 11 11 13 11 11 10 10 8
2 3 8 6 9 7 7 2 5 5 7 6 4 5 8 9 8 12 10 10 14 9 10 8 5 6 8 5 5 3 2 2 3 5 4 5 5 5 4 3 3 3 3 2 1 0 0 2 2 2 3 5 5 4 4 5 6 9 7 11 13 12 15 15 13 11 9 6 9 11 11 4 5 6 2 3 8 5 6 8 8 8 11 12 12 14 10 9 10 10 10 11 11 10 10 11 10
5 6 9 10 5 9 5 9 7 8 9 6 8 10 10 9 7 9 10 13 13 10 12 8 9 9 7 5 3 2 2 2 2 4 1 3 4 4 4 2 3 2 3 3 1 1 2 2 3 2 3 5 6 5 4 3 5 5 4 5 5 5 8 8 6 6 6 4 8 7 5 6 5 6 3 5 4 5 5 5 7 12 12 12 11 13 12 11 12 12 9 10 11 9 9 5 5
8 6 8 9 5 7 6 8 10 8 8 8 7 9 9 8 7 4 4 10 9 11 9 7 8 6 5 4 2 2 2 2 2 1 0 1 3 1 0 2 1 2 2 1 2 1 1 2 3 3 3 4 5 5 4 3 4 4 4 4 5 5 8 5 5 5 4 5 5 6 5 6 5 5 5 6 6 9 7 12 12 13 13 12 12 12 11 11 13 13 12 10 11 11 5 4 4
11 9 10 8 7 9 11 11 12 11 11 11 10 8 7 4 4 4 11 10 10 9 6 5 6 5 5 2 2 2 2 1 1 1 0 1 2 2 3 4 3 2 2 0 1 1 2 3 4 3 4 4 4 5 5 4 4 4 5 4 5 4 7 5 5 5 4 4 4 5 6 6 6 7 6 8 7 4 6 8 10 11 10 10 13 8 9 9 12 12 12 12 8 4 4 4 4
4 10 7 6 5 7 7 9 10 10 9 10 10 8 9 8 1 8 12 11 10 8 8 7 6 6 4 4 5 4 3 4 4 3 0 1 1 1 1 1 0 1 1 2 4 3 4 3 3 4 4 4 4 4 5 5 4 4 4 4 5 3 6 5 5 5 4 4 4 4 6 5 6 7 6 5 5 5 5 5 6 6 6 4 7 4 5 4 5 5 5 5 4 4 5 5 4
9 11 10 10 7 10 6 8 8 8 8 9 8 8 7 6 16 10 8 11 5 5 6 6 7 6 4 4 2 2 1 2 1 2 3 3 4 4 5 3 3 4 3 4 4 3 4 4 4 3 3 4 4 4 6 5 5 4 4 5 5 3 6 4 5 5 4 4 3 4 5 6 6 7 6 5 6 6 6 6 6 6 6 5 5 6 4 4 4 4 5 6 5 4 4 5 4
11 8 10 10 7 11 5 5 3 6 8 8 8 9 10 12 10 9 14 11 6 6 5 5 4 3 2 2 1 2 2 2 2 2 1 2 1 2 3 4 3 3 3 3 3 3 3 3 4 4 3 3 4 5 6 4 5 4 4 5 6 4 5 4 6 6 5 4 3 4 5 6 6 6 6 6 6 6 6 6 7 6 6 6 6 6 4 4 4 5 6 6 7 5 4 4 5
13 9 8 11 9 11 7 8 9 9 10 9 8 8 10 9 12 6 12 7 6 4 3 3 2 1 0 3 2 3 3 3 2 2 2 1 2 1 0 2 2 3 2 3 2 3 3 4 4 4 4 4 4 5 6 5 5 5 5 4 6 5 4 6 7 6 5 4 2 3 3 5 5 6 6 6 5 5 6 6 7 7 6 6 6 6 5 4 4 5 5 7 7 6 5 5 6
11 11 9 9 10 10 7 7 8 8 9 9 11 12 10 10 9 8 9 5 4 3 2 1 1 2 2 3 2 0 1 1 2 0 0 1 1 3 1 2 1 4 4 3 3 2 4 4 4 4 5 5 4 5 5 6 4 5 5 5 6 5 4 6 7 5 5 4 3 2 2 4 4 5 6 6 5 5 5 6 7 6 6 6 6 6 5 4 5 6 6 7 7 6 6 6 5
8 12 9 10 10 9 7 9 9 8 7 9 13 11 10 12 12 12 6 3 1 2 2 1 1 3 2 2 1 1 1 1 0 2 2 1 1 2 2 1 1 2 3 3 3 4 4 4 4 4 5 5 5 5 6 6 6 4 5 5 5 4 4 6 5 6 5 4 4 3 2 2 3 5 5 6 6 5 6 6 6 6 7 6 6 7 6 3 5 6 6 7 7 7 6 6 6
9 12 11 12 9 8 6 8 6 5 7 6 9 6 5 3 3 4 4 2 2 1 2 0 1 2 2 1 0 0 1 1 1 0 3 1 1 3 3 2 3 3 3 3 4 4 4 4 5 4 4 5 5 5 5 6 6 5 5 5 6 4 5 6 5 6 5 4 5 4 3 2 2 4 5 7 6 6 6 6 6 6 7 6 6 6 5 5 5 6 7 7 6 7 6 6 6
12 13 12 11 9 7 7 6 6 3 3 6 7 7 6 8 8 4 3 2 2 1 2 2 1 1 1 1 0 1 2 1 0 1 2 2 3 1 2 2 3 4 4 4 3 4 4 5 4 4 4 5 3 4 4 5 5 5 5 6 5 5 4 6 7 6 5 5 4 4 4 4 3 4 5 6 6 6 6 6 7 7 6 6 7 6 6 6 7 7 7 6 6 6 7 6 6
12 11 13 10 9 9 6 5 3 4 2 4 2 9 9 7 5 3 1 0 0 0 2 1 2 1 1 0 0 1 1 1 1 1 2 2 2 2 3 3 3 3 2 3 4 4 5 5 3 5 3 4 4 5 4 5 6 6 5 6 5 4 5 5 6 6 5 5 4 4 4 3 4 5 6 6 6 5 5 7 7 7 6 7 6 6 8 8 6 6 7 7 7 7 6 6 5
10 5 9 10 7 9 6 3 1 4 1 2 4 1 3 5 4 2 1 1 2 2 1 2 2 1 1 1 1 1 2 2 4 4 3 3 2 3 3 4 4 3 3 3 4 4 4 3 3 4 4 5 5 4 4 4 5 6 5 6 5 5 6 7 6 6 5 6 5 4 4 4 4 6 6 6 6 6 6 6 7 7 6 6 6 7 7 6 6 7 8 7 6 6 7 7 6
2 7 4 2 6 3 4 3 3 3 3 1 2 1 2 4 3 2 1 1 4 2 2 3 1 1 1 0 1 4 7 5 5 6 6 5 4 4 4 4 5 5 4 4 4 4 4 5 3 3 4 5 5 4 4 4 4 6 6 6 5 5 6 6 6 6 5 6 6 4 4 4 5 6 6 6 6 6 7 8 8 7 8 7 8 7 7 6 6 7 7 7 6 6 6 5 5
3 3 0 4 6 2 5 4 7 4 2 5 1 1 2 3 3 2 0 0 4 2 3 1 1 1 3 3 4 5 5 5 5 4 5 5 5 4 3 5 4 4 3 3 3 3 4 4 4 4 3 4 4 5 4 3 4 5 5 5 5 4 6 5 5 5 5 6 4 5 4 6 6 6 7 6 5 6 7 7 7 7 8 8 7 7 7 8 7 7 6 6 8 6 6 6 7
0 2 3 4 5 3 4 5 5 5 1 4 3 2 4 3 3 2 0 2 2 1 1 1 3 4 4 3 3 4 4 4 4 4 4 4 3 4 3 3 3 3 2 1 1 2 2 4 4 4 5 4 3 4 5 5 5 5 5 5 5 5 6 5 7 6 6 6 4 6 5 5 5 6 6 5 5 6 6 7 7 7 8 7 7 7 7 6 7 7 7 6 5 7 8 10 9
4 4 3 1 3 2 2 3 8 7 4 2 2 3 3 4 3 2 1 2 2 2 1 3 3 2 2 2 4 3 4 4 3 3 3 3 3 3 3 2 3 2 2 1 2 3 4 4 4 3 4 4 4 4 4 4 5 6 5 5 5 6 5 6 6 6 6 5 6 5 6 5 4 6 6 6 6 6 7 7 7 8 8 8 7 6 6 7 8 7 6 6 8 8 9 8 9
3 5 2 3 5 9 6 3 5 8 3 5 5 7 4 2 3 2 1 1 1 1 1 1 2 1 2 4 3 4 3 3 2 1 1 2 1 1 1 2 3 4 4 4 6 3 4 4 4 5 4 4 4 4 4 4 5 5 4 5 6 6 5 6 6 7 5 6 6 5 5 5 6 7 7 6 5 7 7 7 7 8 8 7 7 8 8 8 7 7 9 9 7 7 7 7 8
4 4 5 5 5 4 3 2 3 4 5 5 4 3 3 4 2 2 2 1 1 1 2 0 1 2 3 3 3 2 2 2 0 0 1 1 0 1 0 0 2 2 2 3 5 2 3 4 4 5 4 4 4 4 4 4 5 5 6 5 6 5 5 5 6 6 6 6 6 6 5 7 7 8 6 6 7 8 7 7 8 8 7 7 8 9 8 7 9 9 8 8 8 6 6 7 7
5 2 4 4 6 3 2 3 2 3 3 3 2 3 3 3 3 2 2 1 1 1 1 0 1 2 1 2 3 2 3 2 2 3 2 0 2 3 1 1 3 4 4 4 4 4 3 4 5 6 5 4 5 5 4 3 4 6 4 5 6 5 5 5 6 5 6 6 5 5 8 8 7 6 5 6 7 7 7 7 7 6 7 8 8 8 8 9 8 7 7 6 7 8 6 5 6
4 3 2 6 5 3 1 2 3 2 2 1 1 3 2 3 2 2 2 2 2 1 0 1 2 2 1 2 2 2 2 2 3 4 4 3 3 3 2 2 3 3 4 4 4 4 5 6 6 6 5 4 5 5 4 3 3 4 6 6 6 5 5 6 5 6 6 5 6 8 8 7 6 6 7 7 7 7 7 7 7 7 7 8 8 8 9 9 9 8 7 7 4 7 6 5 7
2 3 1 3 3 3 3 2 1 0 1 1 0 2 4 3 3 2 3 2 2 3 3 2 3 2 2 2 2 3 3 3 4 4 4 4 4 3 2 2 3 3 3 4 4 5 6 5 5 5 5 5 5 5 3 3 3 4 5 6 6 5 4 5 5 6 6 6 8 8 8 6 7 7 6 6 6 6 7 7 6 6 7 8 8 8 8 8 8 7 7 7 8 5 6 4 6
5 6 6 3 1 2 1 0 1 2 1 3 1 3 3 3 2 3 0 0 1 1 0 1 0 2 2 2 3 3 3 3 3 4 4 4 4 4 4 3 3 3 4 3 4 4 4 4 4 5 5 5 5 5 3 4 4 5 5 6 6 6 7 6 5 6 6 8 9 8 6 7 7 7 6 6 6 7 7 7 6 6 7 7 7 8 8 9 8 8 7 7 7 8 4 5 5
6 7 3 2 3 2 0 2 2 2 1 0 2 1 0 3 3 1 3 0 1 2 2 3 4 3 2 3 4 2 1 2 2 4 4 4 4 5 5 5 4 3 4 2 3 3 3 4 4 4 4 5 4 4 4 4 4 4 5 5 5 6 4 5 6 6 7 8 8 7 8 7 7 7 6 6 7 6 6 6 6 6 6 7 6 7 8 8 8 7 8 7 6 6 8 6 6
2 3 3 1 2 3 4 2 3 1 2 2 2 0 0 3 4 3 2 1 3 3 4 4 5 4 4 3 2 1 1 2 3 4 4 4 5 5 5 5 4 4 4 2 2 3 4 4 4 4 4 5 5 4 2 3 4 5 6 6 7 6 6 6 8 9 9 8 8 7 7 7 7 6 7 7 6 6 7 6 5 6 6 6 6 7 7 7 7 8 6 6 8 7 8 9 8
1 2 3 2 1 1 2 3 1 2 2 3 1 5 2 1 1 2 3 3 4 4 4 4 4 2 2 2 1 1 2 3 3 3 4 4 5 5 5 5 5 4 4 1 2 3 4 4 4 4 4 4 4 4 4 4 4 4 5 6 6 6 8 7 7 8 8 8 7 9 8 7 6 8 7 5 6 7 6 6 5 4 5 6 7 7 6 7 7 6 7 8 8 8 7 8 8
2 3 2 3 2 0 1 2 1 1 2 0 2 1 0 0 2 1 2 1 2 3 5 7 4 3 2 1 0 0 1 1 2 3 3 4 5 5 5 5 5 5 4 2 2 2 3 4 4 4 4 4 4 4 4 4 4 4 5 5 6 6 7 10 9 8 8 8 9 9 7 7 7 6 6 7 7 6 6 6 5 5 6 6 7 6 7 6 6 7 8 8 7 6 6 7 8
1 1 0 1 0 1 1 1 3 1 1 0 2 7 1 0 2 0 1 2 1 2 4 4 2 1 1 1 1 1 1 2 1 3 4 4 5 5 5 5 5 6 4 2 3 2 1 2 4 4 4 4 4 4 4 4 4 4 5 5 6 6 8 8 8 8 8 8 9 8 7 7 7 6 7 7 6 6 6 5 6 6 6 6 7 7 6 7 8 8 7 6 6 7 6 7 7
1 2 3 2 0 0 0 0 3 1 2 1 4 5 1 0 2 1 1 2 2 3 3 3 2 2 1 1 1 2 3 2 1 2 3 4 5 5 5 5 5 5 4 4 4 3 1 2 4 4 4 4 4 4 4 4 4 4 5 5 7 9 8 8 7 9 8 8 8 8 7 7 6 7 7 6 6 6 6 6 6 6 6 7 8 7 7 7 7 7 8 7 8 8 7 7 7
2 0 1 2 2 1 1 1 1 2 0 0 1 3 3 0 0 0 2 0 0 2 2 3 4 6 6 5 4 4 4 4 2 2 2 3 4 4 4 4 4 5 4 4 4 4 3 3 3 4 4 5 5 4 4 4 5 4 5 6 8 9 9 9 9 9 8 8 8 8 7 7 7 7 7 6 6 6 7 7 7 6 7 8 8 7 7 7 7 7 7 8 8 8 7 7 8
0 1 2 1 0 1 0 1 2 1 1 1 1 1 1 1 0 1 1 3 1 1 2 3 4 4 4 4 4 5 5 4 5 4 3 3 5 5 4 5 5 5 4 4 4 4 4 4 4 5 5 5 5 4 5 5 5 5 5 7 8 8 9 9 9 10 9 9 8 8 7 7 7 7 7 6 6 7 7 6 6 7 7 7 7 7 7 7 7 7 7 6 7 7 7 8 7
2 3 1 1 0 0 2 1 3 0 1 1 0 3 1 1 1 3 2 2 2 2 1 2 2 4 4 4 4 4 4 5 5 4 2 3 4 5 5 5 5 4 4 4 5 5 4 4 5 5 6 6 5 5 5 5 6 6 7 7 7 7 8 8 8 8 8 8 7 8 8 8 7 7 7 7 7 8 7 7 8 7 6 6 7 7 7 7 7 6 6 7 7 7 7 7 7
7 4 3 2 3 3 0 2 2 1 0 1 1 0 0 2 0 2 3 2 2 1 1 0 1 2 4 4 3 4 5 5 3 2 3 4 4 4 4 4 4 4 4 4 4 4 4 4 4 5 6 5 5 5 5 6 7 7 6 7 7 7 8 8 7 8 8 7 7 8 8 8 8 7 8 8 7 7 7 7 7 7 7 7 7 8 8 7 7 7 7 7 7 7 7 8 7
3 1 2 1 3 2 1 0 0 2 3 2 1 0 1 1 2 0 3 3 0 0 0 0 1 4 4 3 4 3 3 3 3 3 4 4 4 4 4 3 3 3 4 4 4 4 4 4 4 5 5 5 5 5 5 6 6 6 6 6 7 7 7 7 7 7 7 8 7 8 7 7 7 7 8 7 8 8 8 7 8 8 7 7 7 7 7 6 6 6 6 7 7 6 7 7 6
4 3 0 3 0 1 0 0 0 1 3 5 1 1 1 2 0 1 0 2 1 2 2 3 4 2 2 3 2 2 2 2 2 3 4 4 4 3 3 3 3 3 4 4 4 4 4 4 4 4 4 4 5 6 6 6 6 6 6 7 8 7 7 7 6 6 6 6 7 7 8 7 7 7 7 8 8 8 8 8 8 8 7 7 7 7 7 7 6 7 6 6 8 6 7 8 7
2 2 2 1 0 1 2 2 2 1 1 3 1 0 3 1 1 1 2 1 4 4 4 2 1 3 2 2 3 3 2 2 2 3 3 4 4 3 3 2 2 3 4 4 4 4 4 4 4 4 4 5 6 6 7 6 7 7 7 7 7 7 7 7 7 8 7 6 6 6 6 7 8 7 7 7 8 7 8 8 8 8 8 7 7 7 7 7 7 6 7 7 7 7 7 7 7
2 2 1 1 1 1 1 0 0 1 1 2 1 0 3 1 2 1 1 3 1 2 2 2 4 3 4 4 3 4 4 3 3 3 3 3 3 3 3 2 2 3 3 4 4 3 3 4 4 4 4 6 6 6 6 6 7 7 7 7 7 7 7 7 7 7 6 7 7 6 6 7 7 7 7 7 8 9 8 9 8 8 7 7 8 7 7 7 7 6 7 7 7 7 7 6 6
3 0 2 1 0 2 1 1 2 3 2 2 3 3 2 1 1 2 1 1 4 4 3 4 5 5 5 4 4 4 4 4 4 4 4 4 3 3 3 3 2 3 3 2 3 3 4 4 4 4 4 5 6 5 5 6 6 6 6 7 7 7 7 7 6 6 6 7 7 6 7 7 7 7 8 8 8 8 8 8 8 8 8 8 7 7 7 7 6 7 7 7 6 6 7 8 7
1 2 1 1 0 2 1 0 2 2 3 5 4 5 2 1 2 1 1 2 3 4 3 3 4 4 4 4 4 4 4 4 4 4 4 4 4 3 3 3 3 2 3 2 2 3 4 4 4 4 4 5 5 6 6 7 6 6 7 7 7 6 6 6 7 7 7 7 6 7 7 7 7 7 7 8 8 8 8 9 8 8 9 8 8 7 7 7 7 6 7 7 7 8 8 8 7
3 2 2 3 1 1 2 1 1 1 1 1 2 5 1 2 0 1 0 1 1 2 3 3 4 4 4 4 3 4 4 4 4 4 4 4 4 4 3 2 1 2 1 2 3 3 3 4 4 4 5 5 5 6 6 6 6 7 7 7 8 6 6 6 7 6 7 6 6 7 7 7 7 7 7 8 8 8 8 8 9 9 9 8 8 8 7 7 7 7 7 7 8 7 8 8 8
0 0 1 0 4 1 0 2 1 1 1 1 0 7 5 2 1 1 1 1 1 2 2 4 4 4 4 3 3 3 4 4 4 4 4 4 4 4 3 2 2 1 2 4 4 3 4 4 4 4 4 4 5 6 5 6 6 7 7 7 7 5 5 6 7 7 7 6 6 7 7 8 7 7 7 8 8 7 8 9 9 9 8 8 8 8 8 7 8 8 8 6 7 8 8 9 8
Wind_Direction
307 298 279 272 270 271 293 211 266 173 248 65 87 52 70 40 46 53 40 93 53 48 49 47 30 38 68 90 98 84 37 56 11 320 81 114 356 12 7 351 338 332 343 336 331 325 333 349 23 28 32 36 38 40 41 42 43 44 44 43 42 44 48 47 44 42 39 37 36 35 29 30 32 35 38 38 37 36 37 38 37 29 28 30 32 35 35 34 34 33 32 31 32 33 33 33 33
307 310 298 277 269 290 220 177 273 192 134 84 58 87 69 62 56 46 51 53 51 63 71 66 40 90 104 117 126 102 47 38 40 67 81 14 320 28 352 338 331 327 330 336 333 337 346 358 24 31 33 36 38 41 43 43 43 43 43 43 43 43 43 46 50 49 47 43 37 33 32 29 28 37 38 38 37 36 33 32 33 32 33 31 32 34 33 34 34 35 34 31 32 32 31 30 30
308 310 302 232 255 231 314 184 278 271 115 80 77 65 67 60 57 55 55 65 70 92 128 75 54 18 73 56 40 36 89 44 19 56 93 29 15 347 330 329 319 311 344 348 343 351 353 9 23 29 35 38 39 41 43 44 44 45 44 42 42 43 43 44 46 49 49 49 49 44 36 28 27 29 34 35 36 34 32 32 32 31 30 31 32 34 35 33 32 35 34 31 31 31 31 31 29
279 266 274 307 282 167 290 193 257 30 80 79 73 49 61 68 65 66 52 55 120 72 53 43 41 8 60 53 96 87 58 44 37 1 31 15 14 311 318 327 339 357 353 1 359 359 352 16 25 30 34 37 40 41 42 43 43 43 43 43 42 43 43 44 45 47 48 48 48 51 49 45 35 31 33 34 32 34 34 34 33 32 30 31 31 31 34 34 34 33 33 31 31 33 32 31 29
266 252 226 271 308 228 228 37 40 34 38 316 81 53 62 71 78 72 66 60 43 36 38 134 93 77 74 61 360 38 52 107 57 44 355 15 354 347 334 328 352 1 1 8 10 1 353 20 24 32 36 37 38 39 40 42 43 45 42 40 39 39 41 41 41 42 44 46 47 45 45 44 43 42 38 37 35 34 32 33 35 34 34 32 32 32 30 29 30 31 30 29 30 30 29 31 32
254 270 207 250 263 338 307 68 56 59 13 48 75 64 74 97 89 97 87 77 70 58 53 46 89 105 46 37 24 75 348 99 12 40 355 352 355 350 330 343 356 9 6 9 11 7 351 18 23 32 37 39 39 39 38 39 40 41 44 41 41 39 39 39 41 41 42 42 43 44 45 45 42 37 37 37 36 35 34 34 35 36 35 32 32 35 35 32 29 30 27 23 25 27 27 27 29
267 247 212 204 268 66 60 65 69 60 34 45 69 64 37 61 127 112 121 103 73 71 30 108 114 125 91 135 80 45 42 16 30 353 355 343 348 339 347 353 358 11 8 8 7 3 3 25 30 33 38 42 43 41 40 39 37 38 39 40 39 37 39 38 37 39 39 40 39 39 38 39 42 38 36 36 35 33 32 32 32 34 36 37 40 40 40 39 36 35 32 27 23 23 24 24 25
257 271 167 236 155 69 64 68 64 55 64 49 47 49 30 19 24 57 48 53 33 33 14 90 92 83 55 69 104 73 53 55 64 353 350 348 338 330 334 347 6 12 8 8 8 12 13 28 33 35 38 40 41 45 45 43 43 41 40 39 39 39 38 36 35 35 36 36 37 37 38 37 36 35 34 32 31 30 30 29 29 30 30 30 30 33 37 38 40 40 37 33 30 26 24 22 24
226 197 49 300 86 88 79 70 85 61 65 51 52 41 36 33 36 59 60 63 76 46 42 20 235 74 85 74 80 116 60 30 35 8 351 331 328 333 353 9 17 14 17 13 7 8 5 28 33 35 36 41 40 41 43 43 44 45 44 42 40 39 38 37 36 35 34 34 34 34 34 34 34 34 32 30 27 25 25 25 26 26 26 28 29 30 29 30 31 33 35 34 32 30 28 25 22
227 240 165 212 105 94 97 86 74 69 72 60 50 31 25 47 61 62 81 71 64 65 51 61 63 97 105 90 109 58 16 5 347 64 288 291 354 347 30 15 22 22 25 10 15 7 8 27 36 40 38 40 40 39 41 41 41 41 41 39 38 38 37 36 35 35 34 33 33 33 33 33 33 32 32 30 27 25 21 21 22 23 24 25 26 27 28 27 26 28 29 29 28 28 27 26 24
250 199 320 181 139 105 93 105 94 93 84 78 52 31 18 34 77 90 88 79 58 55 24 66 68 85 84 71 68 128 190 38 14 21 3 356 56 12 23 2 14 17 12 356 35 30 315 338 15 25 32 35 36 35 34 36 36 35 34 34 34 34 33 33 34 33 32 32 32 32 32 32 34 34 31 26 25 24 21 18 18 19 19 21 22 23 24 24 23 22 23 24 24 25 25 24 22
277 273 41 35 34 96 101 104 103 88 68 54 59 26 21 36 46 63 52 66 72 59 42 2 104 108 79 89 77 108 73 35 21 8 355 0 28 29 6 1 356 4 343 332 16 0 315 325 347 8 22 27 29 29 30 29 29 30 30 29 29 29 27 27 28 29 28 27 29 32 32 32 31 31 30 29 25 22 18 14 13 15 15 14 16 17 18 20 19 18 19 18 17 18 21 22 21
280 14 82 71 86 86 107 106 109 98 69 45 44 38 34 49 39 64 72 61 44 58 34 8 60 167 85 66 117 126 75 46 16 356 348 8 25 10 346 17 350 333 315 334 7 6 355 19 12 3 17 22 14 15 16 18 17 18 20 20 19 20 21 19 18 18 17 19 19 21 27 33 30 30 27 23 24 23 21 13 8 10 11 12 9 10 10 11 14 14 11 13 13 11 11 17 18
353 25 85 107 121 107 107 114 121 96 59 79 76 74 42 50 49 36 77 61 38 48 54 14 57 87 104 136 146 157 98 29 1 336 325 357 24 273 313 298 299 313 316 11 2 3 16 6 18 1 353 351 354 356 352 354 0 354 7 12 9 6 13 11 7 10 9 3 2 2 4 17 27 27 29 23 12 13 15 13 3 1 6 7 4 4 5 5 4 6 6 5 6 4 1 3 9
21 37 71 89 101 109 139 122 118 103 94 81 74 75 63 44 61 50 45 84 49 13 157 46 349 257 148 173 169 140 121 244 282 251 289 290 272 259 246 257 221 271 323 326 311 328 350 329 336 304 301 278 284 303 302 297 326 316 358 349 352 8 6 5 3 7 6 3 359 350 314 13 2 9 21 20 1 352 353 1 356 352 352 358 359 353 355 0 358 358 357 359 358 358 353 349 352
8 350 85 90 59 68 60 94 97 96 110 114 112 105 76 55 49 60 46 73 95 42 38 26 17 49 54 77 104 124 159 208 261 256 233 250 248 242 217 225 209 194 243 251 262 222 259 294 347 347 349 333 303 291 273 285 312 16 16 9 11 13 7 3 2 2 357 3 356 348 348 15 355 224 2 13 349 321 316 328 343 342 339 345 348 350 339 341 349 347 349 351 347 349 348 347 337
236 74 79 59 67 45 2 51 104 88 117 115 194 86 87 76 68 74 78 79 75 54 69 43 47 45 66 101 122 133 168 234 247 260 248 248 227 212 219 219 218 184 215 231 241 277 175 15 31 18 336 343 334 341 340 359 345 12 16 7 359 12 3 2 355 359 351 6 358 338 334 4 8 326 8 9 345 313 276 274 327 319 330 338 339 343 331 328 334 336 335 342 342 338 345 344 338
45 63 82 70 68 58 27 63 78 121 114 108 106 109 107 108 123 129 104 77 82 85 71 73 65 63 74 92 99 142 210 248 278 268 215 226 231 207 191 195 211 194 203 201 50 30 9 18 343 29 4 2 349 353 338 12 350 355 7 11 342 4 356 355 343 355 344 1 355 338 335 347 351 321 327 1 337 318 327 310 275 323 333 337 336 336 333 336 338 337 330 336 338 339 342 332 309
55 65 63 80 59 50 41 79 96 107 96 97 78 80 88 106 130 205 94 85 85 77 78 90 83 95 114 116 154 201 198 226 245 249 276 329 303 358 124 163 68 32 21 8 103 11 81 9 0 19 10 7 356 344 329 9 351 347 359 1 350 348 355 345 342 354 347 4 356 338 344 334 326 323 317 347 350 337 328 333 336 334 332 336 333 334 331 337 339 338 338 338 339 337 340 315 322
38 93 80 73 69 74 61 73 85 92 107 99 91 76 73 71 97 126 86 72 59 63 92 99 89 112 122 145 167 184 217 172 250 274 320 318 341 349 22 15 45 40 325 275 133 83 51 53 359 2 9 0 9 338 332 341 345 349 349 351 352 343 357 334 346 355 350 350 344 342 341 329 331 319 324 343 344 332 318 321 334 333 325 332 328 329 321 335 339 330 329 335 335 320 319 309 309
16 70 84 109 100 90 56 78 87 91 96 100 98 101 79 33 56 122 127 88 64 60 40 59 87 106 127 152 171 195 182 192 191 203 249 14 358 8 344 152 166 230 294 27 3 52 21 40 15 345 16 356 360 340 334 328 334 357 347 343 338 344 358 330 346 348 332 340 351 2 348 334 327 324 326 338 342 327 322 330 335 330 322 316 320 320 324 324 332 317 314 328 319 321 320 306 297
86 67 93 97 98 82 68 57 81 106 113 109 100 92 96 79 41 33 68 85 61 45 57 49 50 55 76 90 69 62 86 56 58 21 49 25 355 358 356 347 29 10 25 28 360 350 34 17 350 348 16 353 357 342 330 325 336 352 336 340 335 345 353 326 346 333 327 333 357 17 355 337 326 327 333 336 338 332 329 338 326 323 318 317 322 315 319 327 322 320 321 320 307 301 291 290 287
94 62 65 73 80 97 92 73 69 98 92 85 80 77 78 74 73 54 68 71 77 55 59 59 55 69 80 103 189 168 171 127 80 52 3 90 33 7 0 323 9 350 2 20 15 332 28 22 335 345 15 356 353 343 325 327 336 335 338 338 341 330 338 348 336 322 315 332 8 26 9 331 325 331 328 333 337 338 333 329 319 310 308 318 312 314 312 320 319 320 322 312 303 299 299 294 289
88 95 87 74 76 77 67 65 60 71 87 94 107 109 86 87 75 60 74 72 77 76 62 65 102 114 206 93 61 48 43 5 33 49 353 5 65 325 272 304 325 300 50 355 2 322 7 2 334 356 351 1 356 338 321 337 331 344 338 349 333 316 353 359 321 308 314 348 344 48 15 324 322 329 325 326 332 335 326 328 313 309 310 318 311 305 316 311 325 323 321 309 299 299 299 299 297
83 90 89 91 82 81 84 89 87 83 72 75 76 76 71 79 96 85 70 65 68 77 66 66 84 101 70 69 61 257 131 120 8 297 175 59 322 316 202 329 347 311 47 352 321 5 9 348 327 4 353 341 354 333 314 337 333 336 347 341 320 322 12 343 310 310 328 335 331 42 11 327 328 330 322 319 328 328 327 318 310 307 322 316 312 311 306 322 327 327 309 297 293 293 292 288 291
74 101 102 97 92 91 82 85 83 82 91 96 91 92 106 110 104 64 71 71 38 99 104 43 97 70 62 78 83 40 359 30 172 2 8 271 223 264 50 319 309 337 22 317 345 24 2 316 339 360 347 342 355 338 325 340 334 341 336 328 317 336 0 327 314 325 320 332 332 340 325 316 324 330 327 327 335 325 323 310 310 316 314 298 309 305 299 327 319 307 295 286 289 287 285 284 285
114 100 97 95 91 87 76 81 83 102 105 109 100 110 119 180 230 88 72 60 295 142 104 142 80 96 94 70 42 12 354 82 357 49 295 302 328 31 14 346 4 11 342 334 6 19 327 335 346 350 341 1 351 347 331 346 334 344 332 325 323 340 339 322 320 315 318 326 329 322 324 323 340 351 343 330 325 325 316 315 315 312 304 301 299 295 301 314 302 289 279 279 280 282 277 278 278
105 108 101 96 101 97 109 97 105 112 85 98 100 95 82 60 56 81 82 36 324 77 92 94 83 58 82 111 153 190 231 102 119 293 293 354 33 358 341 15 347 9 342 359 345 9 336 342 322 355 4 348 359 332 344 340 335 328 322 324 321 334 335 328 319 315 315 327 330 326 328 341 9 1 344 324 319 321 318 318 315 311 304 307 306 300 313 312 299 284 277 279 281 280 277 274 277
127 122 99 104 92 72 52 67 63 81 74 357 95 116 57 40 76 94 79 76 341 357 123 131 119 138 98 284 232 251 114 87 225 246 20 34 15 6 358 2 13 345 357 343 350 1 346 315 3 356 359 335 359 330 357 334 332 324 326 326 324 327 333 324 310 314 321 327 327 326 331 1 21 359 329 317 313 315 316 311 309 304 305 304 307 315 315 305 298 302 301 292 288 284 289 292 287
146 115 128 126 104 67 32 96 76 106 43 300 70 336 36 74 94 82 35 318 257 217 91 65 60 26 24 39 307 288 70 20 18 26 23 15 17 4 6 351 358 0 353 332 9 346 331 318 31 333 1 346 346 332 354 341 324 317 324 320 321 333 338 322 313 320 325 335 324 326 344 16 8 348 325 315 316 315 314 311 309 307 303 305 309 308 299 298 301 300 293 294 294 306 303 295 293
177 134 187 197 98 35 36 36 315 110 128 198 108 15 96 107 98 105 103 259 303 88 45 60 46 8 116 56 17 47 57 42 32 27 16 0 10 10 11 346 9 0 346 1 348 330 339 336 23 328 2 346 334 335 338 328 321 316 321 318 330 350 328 320 322 322 336 329 317 342 344 11 359 342 327 324 321 331 326 320 313 314 315 318 317 310 307 304 302 295 294 297 298 297 289 294 308
117 115 332 33 77 84 54 28 23 66 165 237 233 31 101 105 109 122 172 326 297 56 50 68 45 52 45 45 45 62 68 57 41 37 19 19 27 353 4 18 356 356 347 338 338 349 338 339 9 337 350 341 322 325 321 324 322 310 319 323 338 325 313 312 311 312 328 317 319 343 354 1 354 339 328 324 330 330 318 309 308 309 316 316 312 311 313 309 304 303 304 310 309 306 320 320 322
132 84 49 13 87 141 132 39 22 339 271 216 202 124 155 106 114 127 118 307 297 52 74 55 51 50 33 51 44 71 66 60 54 29 33 31 18 7 33 15 338 341 324 298 325 320 340 337 353 346 328 304 313 327 327 341 324 327 323 327 329 329 322 321 323 324 330 312 327 343 359 353 346 330 320 323 332 318 312 307 306 312 312 308 309 310 307 307 311 310 308 312 331 327 324 317 311
38 56 84 16 52 192 105 187 31 331 309 74 357 76 56 104 131 129 134 326 291 80 104 55 81 39 68 42 54 43 72 63 46 27 20 29 15 14 357 6 326 305 302 321 345 5 3 346 339 334 318 325 331 330 318 335 335 324 323 333 338 327 321 331 322 331 320 319 342 350 348 344 330 323 324 328 318 319 316 312 314 317 314 312 310 315 317 317 309 310 320 331 329 321 312 305 303
359 345 87 92 84 59 55 25 344 354 335 97 95 87 111 120 123 127 67 254 330 71 46 97 32 61 53 58 34 48 37 65 28 65 29 10 45 324 345 0 325 350 343 1 356 2 11 338 341 327 317 323 322 318 326 338 335 317 330 337 331 319 328 327 329 322 313 341 339 336 333 340 335 328 323 320 326 321 317 316 318 317 317 318 328 327 323 314 315 328 326 318 310 295 295 296 294
6 354 37 46 58 24 29 57 10 21 338 35 34 100 132 138 139 127 174 251 244 82 109 358 89 52 44 36 44 37 37 55 7 210 169 183 161 321 251 342 319 315 329 2 330 359 0 325 328 315 309 316 324 333 335 349 337 334 336 332 325 324 323 324 321 311 337 335 325 330 343 340 331 320 316 327 328 320 317 322 319 318 325 334 328 321 314 319 319 317 309 302 303 301 297 295 299
306 36 61 73 108 86 90 76 339 22 328 68 76 104 113 133 141 149 128 212 259 181 84 41 83 75 53 34 39 11 26 32 353 331 359 2 39 346 0 12 345 336 2 349 326 341 345 332 333 319 317 330 347 334 334 358 346 338 329 323 315 311 317 322 318 331 333 321 326 345 340 329 316 313 324 331 323 320 322 322 321 326 333 331 319 311 316 315 310 305 306 309 313 311 307 311 318
1 310 75 47 41 93 82 15 342 59 42 86 100 131 129 125 137 150 147 234 211 115 87 76 44 17 52 47 28 16 331 7 357 345 341 3 13 343 19 349 337 354 329 328 341 351 353 342 329 323 331 349 340 330 338 9 3 328 319 305 305 310 327 324 321 326 321 324 343 340 327 315 316 326 326 324 325 327 328 328 328 329 334 323 318 319 316 311 314 317 317 316 313 317 311 319 313
14 13 254 105 52 103 38 6 9 10 329 112 114 253 151 137 136 159 181 242 86 35 23 37 355 342 325 20 12 342 344 359 347 337 334 350 346 334 9 335 332 342 321 345 358 5 347 334 332 330 333 349 331 320 13 8 344 327 314 304 312 317 313 315 318 321 329 340 335 323 315 316 325 322 321 328 331 334 331 328 325 332 329 324 320 318 314 315 315 318 324 327 320 308 302 314 337
28 13 41 72 10 32 38 101 308 25 36 335 48 330 118 126 109 155 275 159 105 112 189 274 279 309 327 342 329 303 343 337 327 323 326 331 336 344 350 343 326 337 350 339 12 356 332 330 330 340 341 339 328 317 13 9 345 313 309 310 329 332 316 318 326 327 330 328 317 315 316 322 319 320 328 335 336 332 328 324 328 330 325 321 318 319 321 318 320 324 325 319 317 316 326 322 340
30 46 46 36 7 20 18 351 335 257 227 246 279 278 51 148 162 200 169 357 112 197 209 235 242 232 254 265 259 238 315 292 311 327 333 329 339 344 333 326 335 347 327 343 16 348 330 326 333 343 341 323 315 328 15 358 330 319 312 322 328 319 318 327 328 320 321 315 312 320 319 320 322 327 336 336 331 326 326 323 328 325 321 318 324 322 317 313 317 319 324 323 337 338 326 321 319
108 41 10 5 342 345 351 351 23 12 297 277 36 81 206 166 191 185 140 143 255 203 210 243 231 209 201 253 278 312 307 350 357 344 325 326 338 333 336 329 338 324 321 1 26 337 335 333 342 344 326 319 322 320 14 4 338 330 331 337 328 324 319 331 326 322 321 322 319 315 318 323 327 335 335 328 327 331 324 323 323 322 318 325 325 315 310 316 321 322 323 345 338 336 320 313 304
82 313 284 317 266 303 301 320 23 6 40 311 329 89 285 4 211 121 157 215 234 164 210 247 256 226 226 235 277 359 4 341 349 325 319 340 332 337 331 335 325 332 322 3 22 348 340 340 338 323 317 316 319 330 15 9 351 337 337 326 316 321 326 315 314 313 318 316 316 319 320 327 333 332 325 329 333 324 320 320 319 321 328 326 318 311 312 316 318 324 335 335 325 315 307 296 301
85 239 266 257 261 194 338 327 260 231 194 42 353 349 178 179 347 37 78 295 274 250 222 214 216 224 239 242 268 332 323 308 302 300 322 345 340 334 331 329 327 316 307 31 10 336 341 324 324 314 319 326 325 346 11 14 351 338 331 325 323 327 320 313 317 318 317 315 318 320 325 327 329 325 330 332 323 320 321 319 330 336 331 320 316 315 314 317 325 325 320 311 306 306 306 305 305
145 207 272 302 335 29 310 208 279 199 98 304 339 335 114 78 262 3 250 311 297 32 25 32 33 15 1 354 319 315 299 282 288 354 349 345 340 333 329 336 327 330 351 28 314 292 321 318 313 319 324 327 323 354 12 7 355 343 339 325 323 313 313 312 317 317 316 320 319 322 325 325 324 332 330 323 325 325 326 337 339 335 328 324 320 312 317 325 320 314 317 321 316 310 306 303 305
190 237 225 268 276 255 141 346 308 291 62 324 323 335 75 98 245 253 260 246 5 348 13 67 60 359 338 292 290 279 274 278 48 24 346 347 340 330 330 335 336 337 340 355 352 350 327 313 308 325 324 336 336 358 20 2 3 356 332 326 318 317 318 318 321 317 320 323 320 324 326 325 330 329 325 325 326 331 342 341 337 332 330 324 319 324 324 322 323 324 320 315 315 309 304 292 288
329 14 307 224 226 243 163 187 253 350 33 256 343 346 114 208 344 155 98 279 283 333 346 18 21 11 2 4 352 343 345 338 356 354 339 339 325 321 330 333 328 336 340 350 350 335 337 333 326 333 326 344 351 2 22 9 5 348 329 324 322 320 325 326 322 320 321 324 323 326 328 330 329 325 327 325 331 338 339 338 334 332 333 327 322 323 324 323 316 315 315 313 306 303 304 305 302
255 238 236 165 217 325 94 314 75 76 200 244 154 312 59 69 301 53 107 125 59 86 351 10 9 351 351 350 352 345 340 342 332 331 320 343 333 327 335 337 339 333 346 344 339 345 337 336 339 333 342 354 352 11 21 11 357 336 326 326 326 329 330 326 324 321 326 326 327 327 330 328 325 325 323 325 329 335 335 335 336 332 324 322 320 320 314 310 313 310 307 305 303 302 302 304 303
237 245 280 27 172 58 5 129 2 51 244 243 178 350 28 264 169 173 141 104 93 72 104 25 9 343 333 336 330 327 318 309 297 289 340 344 332 323 334 335 342 341 335 338 345 342 334 342 345 354 345 350 359 11 21 0 341 331 330 331 332 330 328 326 322 325 326 326 330 329 332 325 324 322 324 328 329 333 337 336 328 322 321 318 316 312 310 310 307 309 308 305 302 302 303 301 296
358 42 345 48 43 44 61 329 256 87 60 238 119 250 201 172 336 116 134 107 115 95 76 70 38 291 287 284 294 293 286 283 297 336 360 341 323 314 327 338 333 332 332 340 342 335 342 344 348 355 340 352 5 12 5 345 332 329 335 335 332 333 329 329 330 326 327 329 332 329 327 325 321 322 327 328 325 334 334 322 317 314 315 314 312 311 307 308 312 309 303 302 302 300 296 292 292
318 254 54 84 108 130 131 337 66 230 272 290 274 39 231 334 243 188 111 130 145 165 78 131 242 253 255 260 257 270 302 337 4 348 333 321 312 320 333 329 330 322 327 338 340 342 346 343 354 347 349 357 6 1 345 332 329 334 335 336 333 334 329 331 328 327 329 331 330 326 324 320 321 325 325 322 330 326 318 315 315 314 312 310 309 307 308 307 305 303 302 299 297 295 292 294 294
260 276 254 42 203 306 143 200 194 1 3 339 336 213 154 156 231 99 194 107 235 230 212 222 259 290 287 289 297 299 313 333 334 330 324 318 318 332 340 331 328 332 335 347 346 344 356 348 345 349 358 359 0 345 336 333 333 336 334 336 336 335 334 332 326 329 329 330 328 326 323 322 324 323 322 322 317 316 315 318 316 312 312 311 309 307 307 307 304 302 300 299 296 300 298 295 293
304 12 51 215 325 60 81 31 45 123 66 243 227 354 3 285 277 196 206 229 259 203 220 220 269 274 298 330 325 307 312 323 323 321 312 315 324 330 328 324 337 349 352 348 349 358 360 349 349 2 358 5 348 338 333 336 337 337 337 337 338 340 338 335 332 330 330 332 328 325 323 323 322 320 314 316 314 316 317 317 316 314 312 308 307 309 307 303 302 301 298 296 296 299 295 292 292
306 31 249 155 87 131 121 112 242 157 153 264 89 354 290 140 312 264 277 290 294 54 9 340 308 335 355 326 326 340 331 325 311 311 311 309 312 320 325 330 348 357 359 356 357 357 6 14 15 4 9 351 335 334 334 342 340 338 334 337 341 341 339 334 332 330 334 333 327 323 322 320 317 316 317 317 317 315 316 316 313 310 309 311 311 309 306 305 306 303 303 300 297 298 298 307 314
89 171 183 83 322 10 271 115 5 9 335 301 281 349 270 118 212 358 316 4 351 357 353 352 340 338 329 327 329 332 332 330 328 316 317 317 323 323 323 324 341 10 6 355 344 3 15 20 16 30 2 340 332 334 343 341 343 337 337 340 341 341 339 333 330 334 335 329 324 324 321 318 317 319 317 314 314 316 314 313 310 310 311 310 308 308 308 306 306 305 304 304 307 313 315 310 305
11 17 311 258 93 140 13 192 201 142 264 26 295 7 252 285 168 258 333 28 1 337 337 313 311 310 315 317 322 320 317 313 312 316 310 314 319 327 327 327 353 0 345 329 0 25 19 17 29 9 346 337 335 345 345 340 340 341 340 340 338 337 336 335 336 333 334 329 324 324 320 318 315 315 310 312 313 312 312 311 314 312 310 310 311 309 308 309 311 309 311 315 316 314 307 304 306
337 5 346 351 47 204 137 24 96 157 186 221 316 332 287 246 217 113 23 45 305 309 287 292 292 295 303 310 314 312 308 309 307 307 313 316 318 318 317 326 355 340 328 23 40 31 27 35 18 354 342 334 342 342 345 339 343 343 340 336 334 336 337 340 333 335 331 321 323 321 317 310 310 310 312 313 312 309 311 314 312 312 312 313 313 314 319 320 317 317 316 311 311 313 314 314 314
202 263 308 45 330 5 37 277 347 345 96 238 168 260 273 274 279 150 116 221 230 267 273 271 272 282 304 305 315 298 299 299 302 307 308 306 304 307 307 310 313 355 23 30 33 29 31 28 2 346 342 342 346 342 346 345 344 340 335 332 330 334 343 338 336 329 321 321 319 319 314 313 310 309 315 312 311 312 313 312 310 311 313 315 316 323 324 323 321 317 314 317 317 318 317 312 307